SCP
-0 -0 -0 -0 0 0 0 0 0 0 0 0 0 0 0 0 0 0 0 0 0 0 -0 -0 -0 -0 0 0 -0 0 0 0 0 0 -0 -0 -0 -0 -0 0 0 0 0 0 0 0 -0
-0 -0 -0 -0 -0 -0 0 0 0 0 0 0 0 0 0 0 0 0 0 0 0 0 0 -0 -0 -0 0 0 0 0 0 0 0 -0 -0 0 0 0 0 0 0 0 -0 -0 0 0 0
-0 -0 -0 -0 -0 -0 -0 0 0 0 0 0 0 0 0 0 0 0 0 0 0 0 0 -0 0 0 0 0 0 0 0 0 0 0 0 0 0 0 0 -0 0 0 -0 -0 -0 0 0
-0 -0 -0 -0 -0 -0 -0 -0 0 0 0 0 0 0 0 0 0 0 0 0 0 0 0 0 0 0 0 0 0 0 0 0 0 0 0 0 0 0 0 0 -0 -0 -0 0 -0 0 -0
-0 -0 -0 -0 0 0 -0 -0 -0 0 0 0 0 0 0 0 0 0 0 0 0 0 0 0 0 0 0 0 0 0 0 0 0 0 0 0 0 -0 0 -0 -0 -0 0 0 0 0 0
-0 -0 -0 -0 -0 0 -0 0 0 0 0 0 0 0 0 0 0 0 0 0 0 0 0 0 0 0 0 -0 0 0 0 0 0 0 0 0 0 -0 -0 -0 -0 0 -0 0 0 0 0
0 -0 -0 -0 0 0 0 0 0 0 0 0 0 0 0 0 0 0 0 0 0 0 -0 -0 0 0 0 0 0 0 0 0 0 0 0 -0 0 -0 -0 0 0 0 -0 0 0 0 -0
0 0 0 0 0 0 0 -0 0 -0 0 0 0 0 0 0 0 0 0 0 0 0 0 -0 0 0 0 0 0 0 0 0 0 0 0 0 -0 -0 0 0 0 -0 -0 0 0 0 -0
0 0 0 0 0 -0 -0 -0 -0 -0 0 0 0 0 0 0 0 0 0 0 0 0 0 -0 -0 -0 -0 0 -0 0 0 0 0 0 0 0 -0 0 0 -0 -0 -0 -0 -0 0 0 -0
0 0 0 -0 -0 -0 -0 -0 -0 -0 0 0 0 0 0 0 0 0 0 0 0 0 0 0 -0 0 0 0 0 -0 0 0 0 0 -0 -0 0 0 -0 -0 -0 -0 0 0 -0 -0 -0
0 0 -0 -0 -0 -0 -0 -0 -0 -0 0 0 0 0 0 0 0 0 0 0 0 0 0 -0 0 0 0 0 0 0 -0 0 0 0 0 0 0 0 0 0 0 0 0 -0 -0 -0 -0
0 0 -0 -0 -0 -0 -0 -0 -0 -0 -0 -0 0 0 0 0 0 0 0 0 0 0 0 0 0 -0 -0 0 0 0 0 0 0 0 -0 -0 0 0 -0 -0 0 0 -0 -0 -0 -0 -0
0 0 -0 -0 -0 -0 -0 -0 -0 -0 -0 -0 0 0 0 0 0 0 0 0 0 0 0 0 -0 -0 -0 0 0 0 0 0 0 0 0 -0 0 0 0 -0 -0 -0 -0 -0 -0 -0 0
0 0 0 -0 -0 -0 -0 -0 -0 -0 -0 -0 -0 0 -0 0 0 0 0 0 0 0 -0 0 0 -0 -0 0 0 -0 -0 0 -0 -0 0 -0 -0 -0 -0 -0 -0 -0 -0 -0 -0 -0 -0
0 -0 0 -0 -0 -0 -0 -0 -0 -0 -0 -0 -0 -0 0 0 0 0 0 0 0 0 0 0 0 0 -0 0 0 -0 -0 0 0 0 -0 0 -0 -0 -0 -0 -0 -0 -0 -0 -0 -0 -0
0 -0 -0 -0 -0 -0 -0 -0 -0 -0 -0 -0 0 0 0 0 0 0 0 0 0 0 0 0 -0 -0 0 -0 0 0 0 0 0 0 -0 0 0 0 -0 0 -0 -0 -0 -0 0 -0 -0
0 0 -0 -0 -0 -0 -0 -0 -0 -0 -0 -0 -0 0 0 0 0 0 0 0 0 0 0 0 0 0 0 0 0 0 0 -0 -0 0 -0 0 0 0 -0 -0 0 0 -0 -0 -0 -0 -0
0 0 0 -0 0 -0 -0 -0 -0 -0 -0 0 0 0 -0 0 0 0 0 0 0 0 0 0 0 0 0 0 -0 0 -0 -0 0 0 -0 -0 0 -0 0 0 -0 0 0 -0 -0 0 0
0 0 0 -0 -0 -0 -0 -0 -0 -0 -0 0 0 0 0 0 0 0 0 0 0 0 0 0 0 0 0 0 0 0 0 0 0 0 -0 -0 0 0 0 -0 0 0 0 -0 -0 0 -0
0 -0 0 0 0 0 -0 -0 -0 -0 0 0 0 0 0 0 0 0 0 0 0 0 0 0 0 0 0 0 0 0 0 0 0 0 0 0 -0 0 0 0 0 0 0 0 0 0 -0
-0 -0 0 0 0 0 0 -0 -0 -0 -0 0 0 0 0 0 0 0 0 0 0 0 0 0 0 0 0 -0 -0 -0 0 0 0 0 0 0 -0 0 0 0 -0 0 0 0 0 0 0
-0 -0 -0 0 0 0 0 0 -0 -0 -0 0 0 0 0 0 0 0 0 0 0 0 0 0 0 -0 -0 0 -0 0 0 0 0 0 0 0 0 0 -0 0 0 0 0 0 -0 0 0
-0 -0 0 0 0 0 0 0 0 -0 -0 0 0 0 0 0 0 0 0 0 0 0 0 0 0 0 0 0 0 0 0 0 0 0 -0 0 0 0 -0 0 0 0 -0 0 0 0 0
0 -0 0 0 0 0 0 0 0 0 0 0 0 0 0 0 0 0 0 0 0 0 0 0 0 0 0 0 0 0 0 0 0 0 0 0 0 0 0 0 0 -0 0 0 0 0 0
0 0 0 0 0 0 0 0 0 0 0 0 0 0 0 0 0 0 0 0 0 0 0 0 0 0 0 0 0 0 0 0 0 0 0 0 0 0 0 0 0 0 0 0 0 0 0
0 0 0 0 0 0 0 0 0 0 0 0 0 0 0 0 0 0 0 0 0 0 0 0 0 0 0 0 0 0 0 0 0 0 0 0 -0 -0 0 0 0 0 0 0 0 0 0
0 0 0 0 0 0 0 0 0 0 0 0 0 0 0 0 0 0 0 0 0 0 0 0 0 0 0 0 0 0 0 0 0 0 0 0 0 -0 0 0 0 0 0 0 0 0 0
0 0 0 0 0 0 0 0 0 0 0 0 0 0 0 0 0 0 0 0 0 0 0 0 0 0 0 0 0 0 0 0 0 0 0 0 0 0 0 0 0 0 0 0 0 0 0
0 0 0 0 0 0 0 0 0 0 0 0 0 0 0 0 0 0 0 0 0 0 0 0 0 1 0 0 0 0 0 0 0 0 0 0 0 0 0 0 0 0 0 1 0 1 1
Wind_Speed_500mb
30 30 30 29 29 29 29 30 30 31 32 32 30 28 26 23 22 22 22 21 22 22 23 22 20 17 13 20 32 7 9 18 19 16 20 21 22 17 18 3 6 17 3 8 3 5 8
31 31 31 31 31 31 31 31 32 33 34 35 34 32 27 23 21 20 20 20 20 21 21 21 19 18 15 33 7 9 9 14 19 21 21 20 19 15 19 16 18 7 15 13 8 8 10
31 32 32 32 33 33 32 33 33 34 35 37 37 34 28 23 20 17 18 18 18 19 19 18 17 16 21 31 11 16 14 18 20 23 22 21 13 22 14 25 3 13 21 11 15 6 12
33 32 32 33 33 34 34 34 35 37 38 39 40 37 29 22 17 15 16 16 15 16 15 15 14 11 29 18 26 21 20 21 20 18 18 14 19 25 23 8 19 16 16 11 14 8 10
34 34 34 34 35 35 36 36 37 39 40 41 41 39 30 19 14 13 14 13 13 13 13 11 5 11 27 23 26 28 27 27 23 20 20 15 20 36 19 28 28 16 10 6 6 6 12
35 36 36 36 36 36 37 38 39 41 42 43 44 41 28 16 9 11 14 13 10 10 10 9 13 15 29 29 31 31 31 26 28 25 22 26 28 29 26 23 10 6 12 5 5 11 12
37 37 38 38 38 38 38 39 41 42 44 45 46 42 24 13 8 15 21 15 7 10 27 24 19 18 16 17 23 31 32 27 26 30 31 39 28 29 37 10 17 18 16 17 4 7 19
36 37 39 40 40 40 41 41 42 43 45 46 47 42 20 11 9 19 26 16 13 5 22 40 18 28 12 14 33 36 33 33 32 30 37 26 28 33 1 4 16 20 26 26 5 7 19
37 37 39 40 42 43 43 43 44 45 46 47 48 40 16 7 11 22 25 16 7 10 18 30 30 27 25 26 36 41 38 41 32 33 33 28 35 14 3 19 22 31 29 18 11 5 29
35 38 39 40 42 44 45 46 46 47 47 48 48 35 11 4 4 12 23 19 12 9 12 24 26 25 21 29 26 41 38 37 21 30 23 34 12 12 18 24 28 29 8 6 17 22 22
35 37 39 41 42 45 47 48 48 48 49 51 48 29 10 20 12 15 10 11 11 7 13 33 32 29 32 41 43 26 36 31 23 26 22 25 20 15 26 25 18 26 10 20 23 25 36
36 38 40 41 43 45 47 49 50 50 51 52 46 19 11 18 17 18 9 9 7 15 9 21 25 30 34 33 25 35 35 31 26 24 24 34 18 23 31 26 10 24 20 29 28 29 21
38 41 41 42 43 46 48 50 51 52 53 54 36 11 13 22 6 14 11 14 14 19 31 24 35 39 36 26 25 33 34 34 22 24 26 33 22 26 23 20 25 22 32 25 23 21 5
40 41 43 42 43 45 47 50 52 53 54 53 23 6 13 28 13 15 14 19 20 8 25 29 31 37 31 27 29 36 34 32 36 33 20 27 27 34 26 29 34 29 31 26 9 11 16
40 41 42 44 44 45 47 49 52 52 54 48 10 3 10 15 26 17 27 22 19 17 16 22 31 32 30 29 15 34 35 33 32 26 33 22 26 40 25 25 29 30 12 37 28 19 19
40 41 41 44 45 46 47 48 51 50 52 37 4 10 9 19 20 17 20 34 3 16 10 17 25 26 29 33 20 30 31 30 29 30 44 7 18 22 23 22 29 34 30 12 12 2 20
41 40 42 40 44 47 47 47 49 49 49 23 5 16 9 22 17 25 21 23 3 12 14 15 27 20 26 28 31 31 28 24 34 33 34 21 18 10 20 24 18 21 25 20 15 22 16
43 40 41 42 43 48 46 46 46 49 45 19 17 11 16 29 23 32 25 9 6 13 20 12 16 20 23 30 31 29 26 26 35 40 33 33 17 27 19 11 26 24 14 30 18 7 29
42 39 40 42 43 46 46 43 40 43 46 35 17 11 16 26 15 22 29 8 20 18 16 14 20 19 16 17 23 28 18 27 20 17 26 25 23 15 30 29 21 17 7 24 30 15 24
39 41 39 40 41 43 44 40 34 36 37 29 14 11 18 31 42 30 30 29 30 31 22 15 16 16 21 24 26 24 23 19 20 25 6 22 34 25 4 28 23 13 12 13 18 21 26
39 40 40 40 40 42 42 38 32 29 31 22 17 12 8 16 27 26 23 17 33 23 26 14 19 27 25 26 32 25 29 27 24 14 15 22 34 23 35 28 48 14 10 9 14 17 21
42 41 41 39 40 40 39 36 31 24 21 9 16 13 13 30 2 28 15 23 29 25 14 25 27 30 30 31 29 29 32 22 29 20 24 31 11 21 42 23 12 19 19 20 22 20 20
43 41 42 38 38 39 37 34 30 20 14 10 14 15 15 14 21 21 25 29 26 24 6 31 20 29 33 8 14 10 38 31 34 28 32 31 26 18 27 5 20 20 23 23 6 16 21
44 39 42 37 36 37 35 31 28 18 12 5 14 15 19 22 15 15 1 15 15 15 18 12 14 17 12 10 4 4 1 17 11 3 15 1 13 19 5 11 3 33 12 13 23 22 15
46 42 40 35 33 36 33 27 26 18 13 11 11 10 17 18 10 4 17 23 23 11 20 7 6 11 14 12 12 11 10 14 18 16 14 13 13 10 11 24 28 21 12 12 14 19 20
48 41 38 35 36 35 31 24 22 19 13 11 11 12 11 18 5 12 17 11 20 19 15 14 10 13 15 15 18 15 21 12 19 18 15 30 40 27 23 29 35 21 13 13 16 18 22
46 41 37 34 34 31 26 21 19 17 12 11 10 12 8 24 14 13 10 16 12 9 4 21 12 15 18 21 18 17 13 25 14 31 29 21 17 25 23 28 27 10 7 8 16 6 13
42 40 36 33 30 28 23 19 16 15 10 8 7 12 5 18 26 14 10 13 8 14 13 22 11 8 10 19 14 4 9 19 24 18 11 8 15 19 24 20 27 13 5 14 12 2 2
44 40 35 30 29 25 20 18 14 14 10 7 2 11 10 16 20 17 21 20 16 9 17 3 7 7 9 9 8 7 8 8 5 19 12 12 13 15 16 11 8 10 9 11 8 2 3
Wind_Direction_500mb
23 20 17 13 10 8 4 1 357 353 349 345 338 331 319 306 292 273 255 248 245 244 245 245 246 248 245 245 249 240 203 200 194 203 230 242 258 272 256 290 213 261 36 215 190 306 357
20 18 16 12 8 5 3 359 356 353 349 346 341 334 323 310 293 268 248 241 239 239 240 241 241 239 235 252 215 222 218 211 198 211 225 233 253 315 309 256 268 53 275 274 244 307 314
17 13 12 10 8 4 1 358 355 352 349 346 342 336 325 311 291 263 241 234 232 233 235 237 237 237 248 238 231 220 216 200 207 214 228 225 243 253 290 248 117 247 268 273 213 356 317
12 10 7 5 5 4 1 356 353 351 349 346 343 337 327 312 288 252 233 224 223 225 224 226 228 228 249 230 230 223 204 202 200 209 232 212 236 262 260 304 203 253 245 262 101 341 95
9 6 3 1 1 360 359 356 352 350 348 346 343 338 329 313 283 242 221 208 208 211 211 205 195 220 247 215 217 205 202 201 200 208 216 235 239 243 226 239 221 190 268 349 167 119 307
8 4 1 357 356 355 354 353 352 349 347 345 344 340 329 314 267 222 192 182 190 196 193 189 235 231 234 217 196 194 195 210 196 199 204 219 225 233 234 231 282 104 302 175 298 45 294
6 4 1 357 354 351 351 350 349 347 345 344 343 340 329 308 240 200 169 145 166 210 207 202 201 237 146 153 170 188 189 195 208 202 213 201 220 226 232 221 13 324 287 278 219 72 290
0 1 360 358 355 352 349 348 346 345 343 342 342 340 326 299 213 197 190 209 347 354 217 222 231 236 219 197 183 190 186 199 205 214 215 194 232 231 292 24 263 244 254 265 169 196 261
355 356 356 356 355 353 350 347 345 344 341 340 340 338 318 282 202 201 198 214 270 303 253 177 209 211 193 197 196 181 192 202 200 222 204 235 201 221 213 227 240 238 251 309 337 270 258
351 351 351 351 352 351 351 348 344 343 340 338 338 335 300 200 171 197 233 249 239 309 258 145 187 213 188 198 209 188 197 198 214 228 198 228 159 233 236 234 234 270 27 269 264 263 280
344 345 346 347 347 347 348 347 344 343 339 337 335 328 262 189 177 188 158 197 240 266 221 158 154 147 178 212 148 190 192 208 226 224 217 211 237 204 235 235 233 277 349 290 275 261 259
337 340 339 342 342 343 345 345 344 343 339 336 332 314 239 204 222 181 214 231 191 234 166 152 148 179 177 217 197 154 186 215 235 215 213 255 193 240 225 231 240 268 285 253 244 248 275
332 336 337 336 338 339 341 342 342 343 340 336 330 290 226 188 179 194 210 191 227 254 145 154 169 172 191 186 158 174 183 198 198 196 203 220 219 220 244 248 225 233 252 247 228 225 89
322 330 336 336 335 336 339 340 340 343 341 337 328 259 217 197 222 192 192 224 251 134 183 152 176 175 199 173 171 185 191 200 224 219 207 202 207 205 197 234 260 214 253 275 271 256 149
318 322 330 336 336 335 337 338 339 343 342 339 327 210 220 225 196 192 211 225 227 180 121 162 171 186 202 177 190 196 205 215 202 229 251 186 247 177 212 215 237 259 255 276 296 254 230
315 317 323 330 334 336 337 338 338 342 345 339 224 242 179 194 190 186 236 251 3 8 321 189 186 202 193 185 209 199 194 211 215 205 253 240 201 183 181 231 247 271 318 224 275 99 280
310 313 316 324 330 335 337 338 339 340 349 342 212 223 185 179 180 217 231 234 183 193 241 242 237 186 215 186 207 191 189 220 212 189 220 262 239 184 164 213 206 202 238 236 184 256 262
305 307 311 316 325 330 335 338 340 340 351 349 271 254 158 167 206 225 228 242 6 252 198 256 302 281 225 183 203 201 217 201 192 186 206 231 279 188 201 103 209 305 88 256 273 64 336
298 304 308 312 319 326 329 334 338 341 349 347 273 93 175 185 226 215 235 242 228 241 217 215 224 235 261 200 199 233 208 112 181 219 203 217 248 113 222 196 196 243 241 314 312 289 219
291 298 305 310 317 324 325 330 335 338 344 337 273 188 163 211 255 287 208 215 222 210 263 272 273 250 238 243 197 212 190 153 193 230 7 286 243 292 164 321 316 301 253 279 303 298 318
293 292 297 305 312 322 324 324 332 335 340 329 242 300 81 190 223 238 272 241 217 223 214 213 227 240 230 223 206 222 214 137 197 162 221 240 250 167 148 181 248 297 273 267 278 304 301
284 288 292 297 306 315 321 319 327 331 340 303 304 337 328 289 257 206 191 237 245 218 249 214 233 210 239 216 208 210 195 171 184 174 216 226 240 8 273 187 227 250 260 278 273 269 280
277 279 287 292 303 307 317 313 321 327 349 301 328 286 277 254 227 215 221 221 211 244 183 263 225 254 210 259 325 26 218 185 183 183 217 223 259 206 242 110 336 256 251 281 333 306 298
267 269 282 286 296 301 310 307 311 316 318 300 324 311 270 260 229 225 309 238 235 239 300 179 274 280 49 72 281 98 108 109 140 50 36 261 346 246 112 212 282 257 17 301 291 291 252
255 263 273 275 286 297 301 297 300 302 298 289 289 318 296 278 347 197 223 228 216 212 247 149 66 63 118 179 171 150 189 179 187 186 183 254 329 314 338 281 256 315 293 202 273 267 213
248 257 261 268 282 291 291 287 291 293 290 278 286 275 284 296 331 359 277 240 222 192 177 139 142 158 211 247 210 177 254 24 281 179 243 181 188 235 256 296 290 307 346 63 337 270 218
243 246 250 261 278 283 280 279 283 287 286 267 233 277 280 277 275 334 305 346 320 304 185 154 155 197 218 257 242 215 139 128 225 286 168 196 230 253 250 259 265 76 62 98 248 36 55
234 238 245 257 267 276 268 273 275 282 277 249 211 260 258 279 286 302 308 323 301 267 330 110 182 228 243 264 269 347 287 172 185 269 328 262 264 262 255 253 269 20 150 255 52 14 188
233 234 239 251 257 263 261 267 267 273 263 232 239 280 267 258 272 296 265 254 258 290 332 197 345 327 10 309 329 6 251 287 284 291 122 248 272 305 326 20 61 8 338 31 326 107 252
Wind_Speed_850mb
30 30 30 29 29 29 29 30 30 31 32 32 30 28 26 23 22 22 22 21 22 22 23 22 20 17 13 20 32 7 9 18 19 16 20 21 22 17 18 3 6 17 3 8 3 5 8
31 31 31 31 31 31 31 31 32 33 34 35 34 32 27 23 21 20 20 20 20 21 21 21 19 18 15 33 7 9 9 14 19 21 21 20 19 15 19 16 18 7 15 13 8 8 10
31 32 32 32 33 33 32 33 33 34 35 37 37 34 28 23 20 17 18 18 18 19 19 18 17 16 21 31 11 16 14 18 20 23 22 21 13 22 14 25 3 13 21 11 15 6 12
33 32 32 33 33 34 34 34 35 37 38 39 40 37 29 22 17 15 16 16 15 16 15 15 14 11 29 18 26 21 20 21 20 18 18 14 19 25 23 8 19 16 16 11 14 8 10
34 34 34 34 35 35 36 36 37 39 40 41 41 39 30 19 14 13 14 13 13 13 13 11 5 11 27 23 26 28 27 27 23 20 20 15 20 36 19 28 28 16 10 6 6 6 12
35 36 36 36 36 36 37 38 39 41 42 43 44 41 28 16 9 11 14 13 10 10 10 9 13 15 29 29 31 31 31 26 28 25 22 26 28 29 26 23 10 6 12 5 5 11 12
37 37 38 38 38 38 38 39 41 42 44 45 46 42 24 13 8 15 21 15 7 10 27 24 19 18 16 17 23 31 32 27 26 30 31 39 28 29 37 10 17 18 16 17 4 7 19
36 37 39 40 40 40 41 41 42 43 45 46 47 42 20 11 9 19 26 16 13 5 22 40 18 28 12 14 33 36 33 33 32 30 37 26 28 33 1 4 16 20 26 26 5 7 19
37 37 39 40 42 43 43 43 44 45 46 47 48 40 16 7 11 22 25 16 7 10 18 30 30 27 25 26 36 41 38 41 32 33 33 28 35 14 3 19 22 31 29 18 11 5 29
35 38 39 40 42 44 45 46 46 47 47 48 48 35 11 4 4 12 23 19 12 9 12 24 26 25 21 29 26 41 38 37 21 30 23 34 12 12 18 24 28 29 8 6 17 22 22
35 37 39 41 42 45 47 48 48 48 49 51 48 29 10 20 12 15 10 11 11 7 13 33 32 29 32 41 43 26 36 31 23 26 22 25 20 15 26 25 18 26 10 20 23 25 36
36 38 40 41 43 45 47 49 50 50 51 52 46 19 11 18 17 18 9 9 7 15 9 21 25 30 34 33 25 35 35 31 26 24 24 34 18 23 31 26 10 24 20 29 28 29 21
38 41 41 42 43 46 48 50 51 52 53 54 36 11 13 22 6 14 11 14 14 19 31 24 35 39 36 26 25 33 34 34 22 24 26 33 22 26 23 20 25 22 32 25 23 21 5
40 41 43 42 43 45 47 50 52 53 54 53 23 6 13 28 13 15 14 19 20 8 25 29 31 37 31 27 29 36 34 32 36 33 20 27 27 34 26 29 34 29 31 26 9 11 16
40 41 42 44 44 45 47 49 52 52 54 48 10 3 10 15 26 17 27 22 19 17 16 22 31 32 30 29 15 34 35 33 32 26 33 22 26 40 25 25 29 30 12 37 28 19 19
40 41 41 44 45 46 47 48 51 50 52 37 4 10 9 19 20 17 20 34 3 16 10 17 25 26 29 33 20 30 31 30 29 30 44 7 18 22 23 22 29 34 30 12 12 2 20
41 40 42 40 44 47 47 47 49 49 49 23 5 16 9 22 17 25 21 23 3 12 14 15 27 20 26 28 31 31 28 24 34 33 34 21 18 10 20 24 18 21 25 20 15 22 16
43 40 41 42 43 48 46 46 46 49 45 19 17 11 16 29 23 32 25 9 6 13 20 12 16 20 23 30 31 29 26 26 35 40 33 33 17 27 19 11 26 24 14 30 18 7 29
42 39 40 42 43 46 46 43 40 43 46 35 17 11 16 26 15 22 29 8 20 18 16 14 20 19 16 17 23 28 18 27 20 17 26 25 23 15 30 29 21 17 7 24 30 15 24
39 41 39 40 41 43 44 40 34 36 37 29 14 11 18 31 42 30 30 29 30 31 22 15 16 16 21 24 26 24 23 19 20 25 6 22 34 25 4 28 23 13 12 13 18 21 26
39 40 40 40 40 42 42 38 32 29 31 22 17 12 8 16 27 26 23 17 33 23 26 14 19 27 25 26 32 25 29 27 24 14 15 22 34 23 35 28 48 14 10 9 14 17 21
42 41 41 39 40 40 39 36 31 24 21 9 16 13 13 30 2 28 15 23 29 25 14 25 27 30 30 31 29 29 32 22 29 20 24 31 11 21 42 23 12 19 19 20 22 20 20
43 41 42 38 38 39 37 34 30 20 14 10 14 15 15 14 21 21 25 29 26 24 6 31 20 29 33 8 14 10 38 31 34 28 32 31 26 18 27 5 20 20 23 23 6 16 21
44 39 42 37 36 37 35 31 28 18 12 5 14 15 19 22 15 15 1 15 15 15 18 12 14 17 12 10 4 4 1 17 11 3 15 1 13 19 5 11 3 33 12 13 23 22 15
46 42 40 35 33 36 33 27 26 18 13 11 11 10 17 18 10 4 17 23 23 11 20 7 6 11 14 12 12 11 10 14 18 16 14 13 13 10 11 24 28 21 12 12 14 19 20
48 41 38 35 36 35 31 24 22 19 13 11 11 12 11 18 5 12 17 11 20 19 15 14 10 13 15 15 18 15 21 12 19 18 15 30 40 27 23 29 35 21 13 13 16 18 22
46 41 37 34 34 31 26 21 19 17 12 11 10 12 8 24 14 13 10 16 12 9 4 21 12 15 18 21 18 17 13 25 14 31 29 21 17 25 23 28 27 10 7 8 16 6 13
42 40 36 33 30 28 23 19 16 15 10 8 7 12 5 18 26 14 10 13 8 14 13 22 11 8 10 19 14 4 9 19 24 18 11 8 15 19 24 20 27 13 5 14 12 2 2
44 40 35 30 29 25 20 18 14 14 10 7 2 11 10 16 20 17 21 20 16 9 17 3 7 7 9 9 8 7 8 8 5 19 12 12 13 15 16 11 8 10 9 11 8 2 3
Wind_Direction_850mb
23 20 17 13 10 8 4 1 357 353 349 345 338 331 319 306 292 273 255 248 245 244 245 245 246 248 245 245 249 240 203 200 194 203 230 242 258 272 256 290 213 261 36 215 190 306 357
20 18 16 12 8 5 3 359 356 353 349 346 341 334 323 310 293 268 248 241 239 239 240 241 241 239 235 252 215 222 218 211 198 211 225 233 253 315 309 256 268 53 275 274 244 307 314
17 13 12 10 8 4 1 358 355 352 349 346 342 336 325 311 291 263 241 234 232 233 235 237 237 237 248 238 231 220 216 200 207 214 228 225 243 253 290 248 117 247 268 273 213 356 317
12 10 7 5 5 4 1 356 353 351 349 346 343 337 327 312 288 252 233 224 223 225 224 226 228 228 249 230 230 223 204 202 200 209 232 212 236 262 260 304 203 253 245 262 101 341 95
9 6 3 1 1 360 359 356 352 350 348 346 343 338 329 313 283 242 221 208 208 211 211 205 195 220 247 215 217 205 202 201 200 208 216 235 239 243 226 239 221 190 268 349 167 119 307
8 4 1 357 356 355 354 353 352 349 347 345 344 340 329 314 267 222 192 182 190 196 193 189 235 231 234 217 196 194 195 210 196 199 204 219 225 233 234 231 282 104 302 175 298 45 294
6 4 1 357 354 351 351 350 349 347 345 344 343 340 329 308 240 200 169 145 166 210 207 202 201 237 146 153 170 188 189 195 208 202 213 201 220 226 232 221 13 324 287 278 219 72 290
0 1 360 358 355 352 349 348 346 345 343 342 342 340 326 299 213 197 190 209 347 354 217 222 231 236 219 197 183 190 186 199 205 214 215 194 232 231 292 24 263 244 254 265 169 196 261
355 356 356 356 355 353 350 347 345 344 341 340 340 338 318 282 202 201 198 214 270 303 253 177 209 211 193 197 196 181 192 202 200 222 204 235 201 221 213 227 240 238 251 309 337 270 258
351 351 351 351 352 351 351 348 344 343 340 338 338 335 300 200 171 197 233 249 239 309 258 145 187 213 188 198 209 188 197 198 214 228 198 228 159 233 236 234 234 270 27 269 264 263 280
344 345 346 347 347 347 348 347 344 343 339 337 335 328 262 189 177 188 158 197 240 266 221 158 154 147 178 212 148 190 192 208 226 224 217 211 237 204 235 235 233 277 349 290 275 261 259
337 340 339 342 342 343 345 345 344 343 339 336 332 314 239 204 222 181 214 231 191 234 166 152 148 179 177 217 197 154 186 215 235 215 213 255 193 240 225 231 240 268 285 253 244 248 275
332 336 337 336 338 339 341 342 342 343 340 336 330 290 226 188 179 194 210 191 227 254 145 154 169 172 191 186 158 174 183 198 198 196 203 220 219 220 244 248 225 233 252 247 228 225 89
322 330 336 336 335 336 339 340 340 343 341 337 328 259 217 197 222 192 192 224 251 134 183 152 176 175 199 173 171 185 191 200 224 219 207 202 207 205 197 234 260 214 253 275 271 256 149
318 322 330 336 336 335 337 338 339 343 342 339 327 210 220 225 196 192 211 225 227 180 121 162 171 186 202 177 190 196 205 215 202 229 251 186 247 177 212 215 237 259 255 276 296 254 230
315 317 323 330 334 336 337 338 338 342 345 339 224 242 179 194 190 186 236 251 3 8 321 189 186 202 193 185 209 199 194 211 215 205 253 240 201 183 181 231 247 271 318 224 275 99 280
310 313 316 324 330 335 337 338 339 340 349 342 212 223 185 179 180 217 231 234 183 193 241 242 237 186 215 186 207 191 189 220 212 189 220 262 239 184 164 213 206 202 238 236 184 256 262
305 307 311 316 325 330 335 338 340 340 351 349 271 254 158 167 206 225 228 242 6 252 198 256 302 281 225 183 203 201 217 201 192 186 206 231 279 188 201 103 209 305 88 256 273 64 336
298 304 308 312 319 326 329 334 338 341 349 347 273 93 175 185 226 215 235 242 228 241 217 215 224 235 261 200 199 233 208 112 181 219 203 217 248 113 222 196 196 243 241 314 312 289 219
291 298 305 310 317 324 325 330 335 338 344 337 273 188 163 211 255 287 208 215 222 210 263 272 273 250 238 243 197 212 190 153 193 230 7 286 243 292 164 321 316 301 253 279 303 298 318
293 292 297 305 312 322 324 324 332 335 340 329 242 300 81 190 223 238 272 241 217 223 214 213 227 240 230 223 206 222 214 137 197 162 221 240 250 167 148 181 248 297 273 267 278 304 301
284 288 292 297 306 315 321 319 327 331 340 303 304 337 328 289 257 206 191 237 245 218 249 214 233 210 239 216 208 210 195 171 184 174 216 226 240 8 273 187 227 250 260 278 273 269 280
277 279 287 292 303 307 317 313 321 327 349 301 328 286 277 254 227 215 221 221 211 244 183 263 225 254 210 259 325 26 218 185 183 183 217 223 259 206 242 110 336 256 251 281 333 306 298
267 269 282 286 296 301 310 307 311 316 318 300 324 311 270 260 229 225 309 238 235 239 300 179 274 280 49 72 281 98 108 109 140 50 36 261 346 246 112 212 282 257 17 301 291 291 252
255 263 273 275 286 297 301 297 300 302 298 289 289 318 296 278 347 197 223 228 216 212 247 149 66 63 118 179 171 150 189 179 187 186 183 254 329 314 338 281 256 315 293 202 273 267 213
248 257 261 268 282 291 291 287 291 293 290 278 286 275 284 296 331 359 277 240 222 192 177 139 142 158 211 247 210 177 254 24 281 179 243 181 188 235 256 296 290 307 346 63 337 270 218
243 246 250 261 278 283 280 279 283 287 286 267 233 277 280 277 275 334 305 346 320 304 185 154 155 197 218 257 242 215 139 128 225 286 168 196 230 253 250 259 265 76 62 98 248 36 55
234 238 245 257 267 276 268 273 275 282 277 249 211 260 258 279 286 302 308 323 301 267 330 110 182 228 243 264 269 347 287 172 185 269 328 262 264 262 255 253 269 20 150 255 52 14 188
233 234 239 251 257 263 261 267 267 273 263 232 239 280 267 258 272 296 265 254 258 290 332 197 345 327 10 309 329 6 251 287 284 291 122 248 272 305 326 20 61 8 338 31 326 107 252